• Processing (Info)

  • MPEC 2010-U65 : 2010 UO7

    The following Minor Planet Electronic Circular may be linked-to from your own Web pages, but must not otherwise be redistributed electronically.

    A form allowing access to any MPEC is at the bottom of this page.


    Read MPEC 2010-U64 Read MPEC 2010-U66


    M.P.E.C. 2010-U65                                Issued 2010 Oct. 31, 04:16 UT
    
         The Minor Planet Electronic Circulars contain information on unusual
             minor planets and routine data on comets.  They are published
       on behalf of Commission 20 of the International Astronomical Union by the
              Minor Planet Center, Smithsonian Astrophysical Observatory,
                              Cambridge, MA 02138, U.S.A.
    
                 Prepared using the Tamkin Foundation Computer Network
    
                                  MPC@CFA.HARVARD.EDU
           URL https://www.minorplanetcenter.org/iau/mpc.html  ISSN 1523-6714
    
                                       2010 UO7
    
    Observations:
         K10U07O* C2010 10 29.34837 02 43 51.42 +00 17 46.1          19.9 V EU065703
         K10U07O  C2010 10 29.35633 02 43 53.29 +00 17 57.1          19.6 V EU065703
         K10U07O  C2010 10 29.36440 02 43 54.98 +00 18 09.1          19.4 V EU065703
         K10U07O  C2010 10 29.37243 02 43 56.89 +00 18 19.6          19.5 V EU065703
         K10U07O  C2010 10 29.45012 02 44 14.85 +00 20 07.3          19.5 V EU065703
         K10U07O  C2010 10 29.45107 02 44 14.95 +00 20 08.8          20.4 V EU065703
         K10U07O  C2010 10 29.45198 02 44 15.19 +00 20 10.4          19.7 V EU065703
         K10U07O  C2010 10 29.45292 02 44 15.39 +00 20 11.5          19.5 V EU065703
         K10U07O 7C2010 10 29.46896 02 44 22.10 +00 20 47.7          19.4 R EU065F65
         K10U07O 7C2010 10 29.47678 02 44 23.86 +00 20 58.5          19.5 R EU065F65
         K10U07O KC2010 10 29.92348 02 46 19.05 +00 30 49.3          20.6 V EU065595
         K10U07O KC2010 10 29.94617 02 46 24.31 +00 31 21.0          20.1 V EU065595
         K10U07O KC2010 10 29.96587 02 46 28.82 +00 31 48.7          19.7 R EU065473
         K10U07O KC2010 10 29.96666 02 46 29.03 +00 31 49.2          19.7 R EU065473
         K10U07O KC2010 10 29.96887 02 46 29.54 +00 31 52.7          20.1 V EU065595
         K10U07O  C2010 10 30.19464 02 47 29.29 +00 37 21.4          19.3 R EU065H01
         K10U07O  C2010 10 30.20313 02 47 31.26 +00 37 33.3          19.4 R EU065H01
         K10U07O KC2010 10 30.20840602 47 31.09 +00 37 34.1          19.8 V EU065H21
         K10U07O  C2010 10 30.20887 02 47 32.58 +00 37 41.4          19.4 R EU065H01
         K10U07O  C2010 10 30.22296 02 47 35.80 +00 38 01.1          19.7 R EU065H01
         K10U07O KC2010 10 30.22337202 47 34.54 +00 37 55.6          20.3 V EU065H21
         K10U07O KC2010 10 30.23809902 47 37.84 +00 38 16.6          19.7 V EU065H21
         K10U07O  C2010 10 30.33260 02 48 00.81 +00 40 37.8          19.9 R EU065854
         K10U07O  C2010 10 30.34030 02 48 02.55 +00 40 49.2          20.1 R EU065854
         K10U07O  C2010 10 30.34797 02 48 04.34 +00 40 58.7          19.9 R EU065854
         K10U07O KC2010 10 30.97737 02 50 45.40 +00 55 53.4          19.8 R EU065J04
         K10U07O KC2010 10 30.98040 02 50 46.09 +00 55 57.7          19.8 R EU065J04
         K10U07O KC2010 10 30.98343 02 50 46.77 +00 56 02.2          19.9 R EU065J04
    
    Observer details:
    473 Remanzacco.  Observers L. Donato, V. Gonano, E. Guido, G. Sostero.  0.45-m
        f/4.4 Newtonian reflector + CCD.
    595 Farra d'Isonzo.  Observers M. Ceschia, E. Pettarin.  0.40-m f/4.5
        reflector + CCD.
    703 Catalina Sky Survey.  Observer A. Boattini.  Measurers J. D. Ahern,
        E. C. Beshore, A. Boattini, G. J. Garradd, A. R. Gibbs, A. D. Grauer,
        R. E. Hill, R. A. Kowalski, S. M. Larson, R. H. McNaught.  0.68-m Schmidt
        + CCD.
    854 Sabino Canyon Observatory, Tucson.  Observer J. E. McGaha.  0.36-m f/10.0
        Schmidt-Cassegrain + CCD.
    F65 Haleakala-Faulkes Telescope North.  Observers P. Miller, P. Roche,
        A. Tripp, S. Foglia.  Measurer S. Foglia.  2.0-m f/10.0 Ritchey-Chretien
        + CCD.
    H01 Magdalena Ridge Observatory, Socorro.  Observers W. H. Ryan, E. V. Ryan.
        Measurer W. H. Ryan.  2.4-m f/8.9 reflector + CCD.
    H21 Astronomical Research Observatory, Westfield.  Observer R. Holmes.
        Measurers S. Foglia, T. Vorobjov.  0.76-m f/6.65 Ritchey-Chretien + CCD.
    J04 ESA Optical Ground Station, Tenerife.  Observer D. Abreu.  Measurers
        A. Knofel, D. Koschny, M. Busch.  1.0-m f/4.4 reflector + CCD.
    
    Orbital elements:
    2010 UO7                                                 Earth MOID = 0.1122 AU
    Epoch 2010 July 23.0 TT = JDT 2455400.5                 MPC
    M 321.78053              (2000.0)            P               Q
    n   0.38159635     Peri.  276.54609     +0.79008245     -0.61259843
    a   1.8824924      Node   121.23392     +0.57217966     +0.72399009
    e   0.4151343      Incl.    1.48783     +0.21995490     +0.31711437
    P   2.58           H   23.7           G   0.15           U   8
    Residuals in seconds of arc
    101029 703  0.3+  0.8-    101029 595  0.6-  0.3-    101030 H21  0.7+  0.0
    101029 703  1.3+  0.8-    101029 595  0.1-  0.3-    101030 H21  0.1+  0.3+
    101029 703  0.8-  0.1+    101029 473  0.6-  0.1+    101030 854  0.2-  0.7+
    101029 703  0.5+  0.5-    101029 473  0.1-  0.5-    101030 854  0.0   1.3+
    101029 703  0.9+  0.2+    101029 595  0.1+  0.2-    101030 854  1.0+  0.0
    101029 703  0.9-  0.4+    101030 H01  0.3-  0.1+    101030 J04  0.1-  0.4-
    101029 703  0.5-  0.7+    101030 H01  0.1-  0.1+    101030 J04  0.0   0.4-
    101029 703  0.8-  0.6+    101030 H21  0.0   0.5-    101030 J04  0.0   0.2-
    101029 F65  0.1+  0.0     101030 H01  0.2-  0.1+
    101029 F65  0.3+  0.0     101030 H01  0.3-  0.1+
    
    Ephemeris:
    2010 UO7                 a,e,i = 1.88, 0.42, 1                   q = 1.1010
    Date    TT    R. A. (2000) Decl.     Delta      r     Elong.  Phase     V
    2010 10 31    02 50.81   +00 57.0    0.112    1.101   164.9    13.6    19.9
    2010 11 10    03 29.57   +05 07.4    0.119    1.106   166.0    12.5    20.0
    2010 11 20    04 00.31   +09 14.2    0.135    1.121   168.6    10.0    20.2
    2010 11 30    04 22.55   +12 47.9    0.160    1.144   171.2     7.5    20.6
    2010 12 10    04 38.33   +15 41.8    0.194    1.176   170.3     8.1    21.1
    2010 12 20    04 50.75   +17 58.9    0.238    1.215   165.0    12.1    21.7
    2010 12 30    05 02.00   +19 44.9    0.293    1.260   158.1    16.9    22.4
    2011 01 09    05 13.55   +21 06.1    0.359    1.309   150.9    21.4    23.1
    
    Carl W. Hergenrother         (C) Copyright 2010 MPC           M.P.E.C. 2010-U65
    

    Read MPEC 2010-U64 Read MPEC 2010-U66


    MPEC number:

    Enter an MPEC number in one of the following forms:

    • 1997-B01 (the full form)
    • J97B01 (the packed version of the full form)
    • B01 (the abbreviated form)